| time (UTC) | temp C | wind direction | speed KPH | gust KPH | rain 1hr cm | rain 24hr cm | rain mn cm | humidity % | barometer mb |
| 20260505122024 | 18 | 180 | 4.8 | 16.1 | 0.00 | 0.00 | 0.00 | 60 | 1011.1 |
| 20260505121612 | 18 | 259 | 3.2 | 19.3 | 0.00 | 0.00 | 0.00 | 61 | 1011.0 |
| 20260505121025 | 18 | 280 | 6.4 | 19.3 | 0.00 | 0.00 | 0.00 | 61 | 1011.0 |
| 20260505120524 | 18 | 234 | 1.6 | 14.5 | 0.00 | 0.00 | 0.00 | 63 | 1011.0 |
| 20260505120047 | 17 | 227 | 3.2 | 14.5 | 0.00 | 0.00 | 0.00 | 64 | 1011.0 |
| 20260505115527 | 17 | 256 | 3.2 | 14.5 | 0.00 | 0.00 | 0.00 | 65 | 1010.9 |
| 20260505115026 | 17 | 197 | 6.4 | 12.9 | 0.00 | 0.00 | 0.00 | 66 | 1011.0 |
| 20260505114545 | 17 | 212 | 4.8 | 12.9 | 0.00 | 0.00 | 0.00 | 66 | 1011.0 |
| 20260505114024 | 16 | 160 | 3.2 | 12.9 | 0.00 | 0.00 | 0.00 | 69 | 1010.9 |
| 20260505113528 | 16 | 232 | 4.8 | 16.1 | 0.00 | 0.00 | 0.00 | 69 | 1010.9 |
| 20260505113046 | 16 | 201 | 3.2 | 16.1 | 0.00 | 0.00 | 0.00 | 70 | 1010.8 |
| 20260505112528 | 16 | 240 | 4.8 | 14.5 | 0.00 | 0.00 | 0.00 | 70 | 1010.8 |
| 20260505112024 | 16 | 336 | 3.2 | 8.0 | 0.00 | 0.00 | 0.00 | 71 | 1010.7 |
| 20260505111542 | 16 | 231 | 0.0 | 8.0 | 0.00 | 0.00 | 0.00 | 73 | 1010.8 |
| 20260505111024 | 16 | 234 | 3.2 | 8.0 | 0.00 | 0.00 | 0.00 | 73 | 1010.7 |
| 20260505110525 | 15 | 259 | 1.6 | 6.4 | 0.00 | 0.00 | 0.00 | 74 | 1010.7 |
| 20260505102025 | 15 | 267 | 1.6 | 11.3 | 0.00 | 0.00 | 0.00 | 76 | 1010.5 |
| 20260505101543 | 15 | 200 | 1.6 | 11.3 | 0.00 | 0.00 | 0.00 | 76 | 1010.4 |
| 20260505101025 | 15 | 258 | 3.2 | 11.3 | 0.00 | 0.00 | 0.00 | 76 | 1010.3 |
| 20260505100525 | 15 | 170 | 3.2 | 8.0 | 0.00 | 0.00 | 0.00 | 77 | 1010.3 |
| 20260505100044 | 15 | 208 | 3.2 | 8.0 | 0.00 | 0.00 | 0.00 | 77 | 1010.3 |
| 20260505095526 | 15 | 249 | 3.2 | 11.3 | 0.00 | 0.00 | 0.00 | 77 | 1010.3 |
| 20260505095025 | 15 | 155 | 4.8 | 11.3 | 0.00 | 0.00 | 0.00 | 77 | 1010.3 |
| 20260505094545 | 15 | 150 | 1.6 | 8.0 | 0.00 | 0.00 | 0.00 | 78 | 1010.3 |
| 20260505094027 | 15 | 198 | 3.2 | 8.0 | 0.00 | 0.00 | 0.00 | 78 | 1010.3 |
| 20260505093525 | 15 | 215 | 1.6 | 6.4 | 0.00 | 0.00 | 0.00 | 79 | 1010.2 |
| 20260505093045 | 15 | 158 | 1.6 | 4.8 | 0.00 | 0.00 | 0.00 | 79 | 1010.4 |
| 20260505092525 | 15 | 219 | 1.6 | 4.8 | 0.00 | 0.00 | 0.00 | 79 | 1010.3 |
| 20260505092025 | 15 | 257 | 1.6 | 4.8 | 0.00 | 0.00 | 0.00 | 80 | 1010.3 |
| 20260505091549 | 15 | 160 | 1.6 | 6.4 | 0.00 | 0.00 | 0.00 | 80 | 1010.3 |
| 20260505091024 | 15 | 153 | 1.6 | 9.7 | 0.00 | 0.00 | 0.00 | 80 | 1010.2 |
| 20260505090524 | 15 | 197 | 1.6 | 9.7 | 0.00 | 0.00 | 0.00 | 80 | 1010.2 |
| 20260505090056 | 15 | 155 | 1.6 | 3.2 | 0.00 | 0.00 | 0.00 | 80 | 1010.2 |
| 20260505085526 | 15 | 179 | 1.6 | 3.2 | 0.00 | 0.00 | 0.00 | 79 | 1010.2 |
| 20260505085028 | 15 | 150 | 0.0 | 6.4 | 0.00 | 0.00 | 0.00 | 79 | 1010.4 |
| 20260505084546 | 15 | 246 | 1.6 | 6.4 | 0.00 | 0.00 | 0.00 | 79 | 1010.4 |
| 20260505084027 | 15 | 206 | 1.6 | 9.7 | 0.00 | 0.00 | 0.00 | 79 | 1010.4 |
| 20260505083527 | 15 | 265 | 3.2 | 9.7 | 0.00 | 0.00 | 0.00 | 79 | 1010.3 |
| 20260505083049 | 15 | 162 | 3.2 | 17.7 | 0.00 | 0.00 | 0.00 | 79 | 1010.4 |
| 20260505082527 | 15 | 252 | 3.2 | 17.7 | 0.00 | 0.00 | 0.00 | 79 | 1010.3 |
| 20260505082025 | 15 | 244 | 3.2 | 14.5 | 0.00 | 0.00 | 0.00 | 78 | 1009.9 |
| 20260505081544 | 15 | 217 | 3.2 | 12.9 | 0.00 | 0.00 | 0.00 | 78 | 1010.0 |
| 20260505081025 | 15 | 193 | 4.8 | 12.9 | 0.00 | 0.00 | 0.00 | 76 | 1010.1 |
| 20260505080528 | 15 | 235 | 4.8 | 12.9 | 0.00 | 0.00 | 0.00 | 74 | 1010.2 |
| 20260505080045 | 15 | 199 | 3.2 | 8.0 | 0.00 | 0.00 | 0.00 | 74 | 1010.3 |
| 20260505075524 | 15 | 206 | 3.2 | 8.0 | 0.00 | 0.00 | 0.00 | 73 | 1010.3 |
| 20260505075027 | 15 | 218 | 3.2 | 11.3 | 0.00 | 0.00 | 0.00 | 73 | 1010.4 |
| 20260505074544 | 15 | 257 | 3.2 | 11.3 | 0.00 | 0.00 | 0.00 | 73 | 1010.1 |
| 20260505074027 | 15 | 271 | 1.6 | 8.0 | 0.00 | 0.00 | 0.00 | 73 | 1010.1 |
| 20260505073525 | 15 | 216 | 3.2 | 8.0 | 0.00 | 0.00 | 0.00 | 73 | 1010.1 |
| 20260505073055 | 15 | 153 | 0.0 | 6.4 | 0.00 | 0.00 | 0.00 | 73 | 1010.0 |
| 20260505072524 | 15 | 256 | 1.6 | 6.4 | 0.00 | 0.00 | 0.00 | 74 | 1010.1 |
| 20260505072027 | 15 | 252 | 1.6 | 8.0 | 0.00 | 0.00 | 0.00 | 74 | 1010.0 |
| 20260505071544 | 15 | 221 | 3.2 | 8.0 | 0.00 | 0.00 | 0.00 | 74 | 1010.0 |
| 20260505071024 | 15 | 286 | 3.2 | 8.0 | 0.00 | 0.00 | 0.00 | 74 | 1009.9 |
| 20260505070524 | 15 | 234 | 1.6 | 6.4 | 0.00 | 0.00 | 0.00 | 74 | 1010.0 |
| 20260505070050 | 15 | 259 | 1.6 | 6.4 | 0.00 | 0.00 | 0.00 | 75 | 1009.9 |
| 20260505065524 | 15 | 271 | 0.0 | 8.0 | 0.00 | 0.00 | 0.00 | 74 | 1009.8 |
| 20260505065027 | 15 | 273 | 1.6 | 8.0 | 0.00 | 0.00 | 0.00 | 74 | 1009.8 |
| 20260505064546 | 15 | 225 | 1.6 | 8.0 | 0.00 | 0.00 | 0.00 | 74 | 1009.9 |
| 20260505064024 | 15 | 245 | 1.6 | 8.0 | 0.00 | 0.00 | 0.00 | 74 | 1009.9 |
| 20260505063524 | 15 | 254 | 0.0 | 6.4 | 0.00 | 0.00 | 0.00 | 74 | 1009.9 |
| 20260505063049 | 15 | 215 | 1.6 | 8.0 | 0.00 | 0.00 | 0.00 | 73 | 1009.8 |
| 20260505062528 | 15 | 241 | 1.6 | 8.0 | 0.00 | 0.00 | 0.00 | 73 | 1010.0 |
| 20260505062030 | 15 | 211 | 1.6 | 8.0 | 0.00 | 0.00 | 0.00 | 73 | 1009.9 |
| 20260505061545 | 15 | 160 | 1.6 | 9.7 | 0.00 | 0.00 | 0.00 | 72 | 1010.0 |
| 20260505061029 | 15 | 256 | 3.2 | 9.7 | 0.00 | 0.00 | 0.00 | 72 | 1010.0 |
| 20260505060525 | 15 | 259 | 1.6 | 9.7 | 0.00 | 0.00 | 0.00 | 72 | 1009.9 |
| 20260505060040 | 15 | 181 | 3.2 | 11.3 | 0.00 | 0.00 | 0.00 | 71 | 1010.0 |
| 20260505055528 | 15 | 139 | 4.8 | 11.3 | 0.00 | 0.00 | 0.00 | 70 | 1009.9 |
| 20260505055025 | 15 | 251 | 3.2 | 11.3 | 0.00 | 0.00 | 0.00 | 70 | 1009.9 |
| 20260505054600 | 16 | 226 | 1.6 | 8.0 | 0.00 | 0.00 | 0.00 | 69 | 1010.1 |
| 20260505054025 | 16 | 180 | 3.2 | 9.7 | 0.00 | 0.00 | 0.00 | 68 | 1010.0 |
| 20260505053525 | 16 | 153 | 1.6 | 9.7 | 0.00 | 0.00 | 0.00 | 68 | 1010.1 |
| 20260505053049 | 16 | 225 | 3.2 | 9.7 | 0.00 | 0.00 | 0.00 | 67 | 1010.3 |
| 20260505052527 | 16 | 265 | 4.8 | 11.3 | 0.00 | 0.00 | 0.00 | 67 | 1010.2 |
| 20260505052028 | 16 | 161 | 1.6 | 11.3 | 0.00 | 0.00 | 0.00 | 66 | 1010.2 |
| 20260505051544 | 16 | 215 | 3.2 | 14.5 | 0.00 | 0.00 | 0.00 | 66 | 1010.2 |
| 20260505051027 | 16 | 209 | 4.8 | 14.5 | 0.00 | 0.00 | 0.00 | 66 | 1010.2 |
| 20260505050528 | 16 | 124 | 6.4 | 16.1 | 0.00 | 0.00 | 0.00 | 66 | 1010.2 |
| 20260505041550 | 16 | 240 | 3.2 | 11.3 | 0.00 | 0.00 | 0.00 | 65 | 1010.3 |
| 20260505041027 | 16 | 220 | 3.2 | 11.3 | 0.00 | 0.00 | 0.00 | 65 | 1010.3 |
| 20260505040528 | 16 | 234 | 4.8 | 12.9 | 0.00 | 0.00 | 0.00 | 65 | 1010.3 |
| 20260505040044 | 16 | 134 | 3.2 | 14.5 | 0.00 | 0.00 | 0.00 | 65 | 1010.2 |
| 20260505035527 | 16 | 237 | 4.8 | 14.5 | 0.00 | 0.00 | 0.00 | 65 | 1010.3 |
| 20260505035027 | 16 | 245 | 1.6 | 12.9 | 0.00 | 0.00 | 0.00 | 65 | 1010.2 |
| 20260505034537 | 16 | 121 | 3.2 | 12.9 | 0.00 | 0.00 | 0.00 | 65 | 1010.2 |
| 20260505034027 | 16 | 146 | 3.2 | 12.9 | 0.00 | 0.00 | 0.00 | 64 | 1010.2 |
| 20260505033527 | 16 | 203 | 3.2 | 11.3 | 0.00 | 0.00 | 0.00 | 64 | 1010.1 |
| 20260505033037 | 16 | 222 | 3.2 | 11.3 | 0.00 | 0.00 | 0.00 | 64 | 1010.1 |
| 20260505032527 | 16 | 162 | 3.2 | 11.3 | 0.00 | 0.00 | 0.00 | 64 | 1010.1 |
| 20260505032028 | 16 | 197 | 4.8 | 11.3 | 0.00 | 0.00 | 0.00 | 63 | 1010.0 |
| 20260505031545 | 16 | 130 | 3.2 | 12.9 | 0.00 | 0.00 | 0.00 | 63 | 1010.0 |
| 20260505031024 | 16 | 217 | 3.2 | 16.1 | 0.00 | 0.00 | 0.00 | 63 | 1010.3 |
| 20260505030525 | 16 | 212 | 4.8 | 16.1 | 0.00 | 0.00 | 0.00 | 63 | 1010.3 |
| 20260505030056 | 16 | 198 | 4.8 | 16.1 | 0.00 | 0.00 | 0.00 | 63 | 1010.4 |
| 20260505025528 | 16 | 246 | 3.2 | 16.1 | 0.00 | 0.00 | 0.00 | 63 | 1010.4 |
| 20260505025026 | 16 | 176 | 4.8 | 16.1 | 0.00 | 0.00 | 0.00 | 62 | 1010.4 |
| 20260505024537 | 16 | 281 | 4.8 | 14.5 | 0.00 | 0.00 | 0.00 | 62 | 1010.4 |
| 20260505024027 | 16 | 249 | 4.8 | 12.9 | 0.00 | 0.00 | 0.00 | 62 | 1010.4 |
| 20260505023525 | 16 | 200 | 3.2 | 12.9 | 0.00 | 0.00 | 0.00 | 62 | 1010.4 |
| 20260505023047 | 16 | 187 | 3.2 | 14.5 | 0.00 | 0.00 | 0.00 | 61 | 1010.6 |
| 20260505022527 | 16 | 163 | 4.8 | 14.5 | 0.00 | 0.00 | 0.00 | 61 | 1010.6 |
| 20260505022027 | 16 | 146 | 3.2 | 9.7 | 0.00 | 0.00 | 0.00 | 60 | 1010.5 |
| 20260505021553 | 16 | 171 | 1.6 | 9.7 | 0.00 | 0.00 | 0.00 | 59 | 1010.6 |
| 20260505021026 | 16 | 143 | 1.6 | 8.0 | 0.00 | 0.00 | 0.00 | 58 | 1010.4 |
| 20260505020526 | 16 | 182 | 1.6 | 9.7 | 0.00 | 0.00 | 0.00 | 58 | 1010.5 |
| 20260505020053 | 16 | 219 | 3.2 | 11.3 | 0.00 | 0.00 | 0.00 | 57 | 1010.4 |
| 20260505015527 | 16 | 180 | 3.2 | 11.3 | 0.00 | 0.00 | 0.00 | 56 | 1010.5 |
| 20260505015027 | 16 | 257 | 3.2 | 8.0 | 0.00 | 0.00 | 0.00 | 55 | 1010.5 |
| 20260505014543 | 17 | 146 | 3.2 | 9.7 | 0.00 | 0.00 | 0.00 | 53 | 1010.6 |
| 20260505014027 | 17 | 148 | 1.6 | 9.7 | 0.00 | 0.00 | 0.00 | 52 | 1010.5 |
| 20260505013527 | 17 | 163 | 1.6 | 12.9 | 0.00 | 0.00 | 0.00 | 51 | 1010.6 |
| 20260505013042 | 17 | 193 | 1.6 | 12.9 | 0.00 | 0.00 | 0.00 | 50 | 1010.4 |
| 20260505012527 | 17 | 136 | 1.6 | 8.0 | 0.00 | 0.00 | 0.00 | 49 | 1010.5 |
| 20260505012027 | 17 | 175 | 1.6 | 9.7 | 0.00 | 0.00 | 0.00 | 49 | 1010.3 |
| 20260505011546 | 17 | 169 | 3.2 | 9.7 | 0.00 | 0.00 | 0.00 | 48 | 1010.4 |
| 20260505011023 | 17 | 173 | 1.6 | 6.4 | 0.00 | 0.00 | 0.00 | 48 | 1010.2 |
| 20260505010524 | 17 | 225 | 1.6 | 6.4 | 0.00 | 0.00 | 0.00 | 47 | 1010.2 |
| 20260505010105 | 17 | 191 | 3.2 | 6.4 | 0.00 | 0.00 | 0.00 | 47 | 1010.2 |
| 20260505005526 | 17 | 205 | 0.0 | 3.2 | 0.00 | 0.00 | 0.00 | 47 | 1010.1 |
| 20260505005028 | 18 | 240 | 1.6 | 6.4 | 0.00 | 0.00 | 0.00 | 46 | 1010.0 |
| 20260505004546 | 18 | 192 | 1.6 | 6.4 | 0.00 | 0.00 | 0.00 | 46 | 1010.0 |
| 20260505004024 | 18 | 226 | 0.0 | 6.4 | 0.00 | 0.00 | 0.00 | 45 | 1010.0 |
| 20260505003524 | 18 | 219 | 1.6 | 8.0 | 0.00 | 0.00 | 0.00 | 45 | 1010.0 |
| 20260505003049 | 18 | 189 | 3.2 | 8.0 | 0.00 | 0.00 | 0.00 | 45 | 1010.0 |
| 20260505002524 | 18 | 215 | 0.0 | 11.3 | 0.00 | 0.00 | 0.00 | 44 | 1009.9 |
| 20260505002024 | 18 | 205 | 1.6 | 11.3 | 0.00 | 0.00 | 0.00 | 43 | 1009.9 |
| 20260505001541 | 18 | 207 | 3.2 | 9.7 | 0.00 | 0.00 | 0.00 | 43 | 1009.8 |
| 20260505001027 | 19 | 0 | 1.6 | 11.3 | 0.00 | 0.00 | 0.00 | 42 | 1009.8 |
| 20260505000525 | 19 | 250 | 3.2 | 11.3 | 0.00 | 0.00 | 0.00 | 42 | 1009.8 |
| 20260505000045 | 19 | 157 | 1.6 | 6.4 | 0.00 | 0.00 | 0.00 | 41 | 1009.8 |
| 20260504235527 | 19 | 150 | 1.6 | 6.4 | 0.00 | 0.00 | 0.00 | 41 | 1009.6 |
| 20260504235024 | 20 | 146 | 0.0 | 8.0 | 0.00 | 0.00 | 0.00 | 40 | 1009.6 |
| 20260504234544 | 20 | 256 | 1.6 | 8.0 | 0.00 | 0.00 | 0.00 | 39 | 1009.6 |
| 20260504234027 | 20 | 156 | 1.6 | 8.0 | 0.00 | 0.00 | 0.00 | 39 | 1009.6 |
| 20260504233523 | 20 | 161 | 1.6 | 6.4 | 0.00 | 0.00 | 0.00 | 38 | 1009.6 |
| 20260504233051 | 20 | 199 | 1.6 | 6.4 | 0.00 | 0.00 | 0.00 | 37 | 1009.5 |
| 20260504232528 | 21 | 169 | 0.0 | 6.4 | 0.00 | 0.00 | 0.00 | 37 | 1009.6 |
| 20260504232025 | 21 | 262 | 3.2 | 9.7 | 0.00 | 0.00 | 0.00 | 36 | 1009.5 |
| 20260504231542 | 21 | 265 | 1.6 | 9.7 | 0.00 | 0.00 | 0.00 | 36 | 1009.5 |
| 20260504231024 | 21 | 243 | 3.2 | 11.3 | 0.00 | 0.00 | 0.00 | 35 | 1009.6 |
| 20260504230527 | 21 | 252 | 3.2 | 11.3 | 0.00 | 0.00 | 0.00 | 35 | 1009.5 |
| 20260504230100 | 21 | 211 | 3.2 | 16.1 | 0.00 | 0.00 | 0.00 | 35 | 1009.5 |
| 20260504225524 | 21 | 266 | 4.8 | 16.1 | 0.00 | 0.00 | 0.00 | 35 | 1009.6 |
| 20260504225024 | 21 | 277 | 3.2 | 14.5 | 0.00 | 0.00 | 0.00 | 35 | 1009.5 |
| 20260504224556 | 21 | 220 | 3.2 | 16.1 | 0.00 | 0.00 | 0.00 | 35 | 1009.6 |
| 20260504224024 | 21 | 248 | 4.8 | 16.1 | 0.00 | 0.00 | 0.00 | 34 | 1009.6 |
| 20260504223524 | 21 | 265 | 3.2 | 14.5 | 0.00 | 0.00 | 0.00 | 34 | 1009.5 |
| 20260504223039 | 21 | 238 | 6.4 | 16.1 | 0.00 | 0.00 | 0.00 | 34 | 1009.6 |
| 20260504222525 | 21 | 277 | 4.8 | 16.1 | 0.00 | 0.00 | 0.00 | 34 | 1009.5 |
| 20260504222023 | 21 | 219 | 4.8 | 19.3 | 0.00 | 0.00 | 0.00 | 34 | 1009.5 |
| 20260504221544 | 21 | 271 | 4.8 | 19.3 | 0.00 | 0.00 | 0.00 | 34 | 1009.5 |
| 20260504221030 | 21 | 267 | 8.0 | 19.3 | 0.00 | 0.00 | 0.00 | 34 | 1009.5 |
| 20260504220527 | 21 | 262 | 3.2 | 12.9 | 0.00 | 0.00 | 0.00 | 34 | 1009.4 |
| 20260504220051 | 21 | 262 | 3.2 | 19.3 | 0.00 | 0.00 | 0.00 | 34 | 1009.5 |
| 20260504215531 | 21 | 219 | 6.4 | 19.3 | 0.00 | 0.00 | 0.00 | 33 | 1009.5 |
| 20260504215026 | 22 | 232 | 6.4 | 14.5 | 0.00 | 0.00 | 0.00 | 33 | 1009.4 |
| 20260504214543 | 22 | 263 | 3.2 | 19.3 | 0.00 | 0.00 | 0.00 | 32 | 1009.4 |
| 20260504214027 | 22 | 298 | 6.4 | 19.3 | 0.00 | 0.00 | 0.00 | 32 | 1009.5 |
| 20260504213527 | 22 | 269 | 4.8 | 17.7 | 0.00 | 0.00 | 0.00 | 33 | 1009.5 |
| 20260504213040 | 22 | 153 | 8.0 | 17.7 | 0.00 | 0.00 | 0.00 | 32 | 1009.5 |
| 20260504212528 | 22 | 270 | 6.4 | 16.1 | 0.00 | 0.00 | 0.00 | 32 | 1009.5 |
| 20260504212027 | 22 | 294 | 6.4 | 16.1 | 0.00 | 0.00 | 0.00 | 33 | 1009.4 |
| 20260504211546 | 22 | 147 | 6.4 | 24.1 | 0.00 | 0.00 | 0.00 | 32 | 1009.4 |
| 20260504211027 | 22 | 261 | 8.0 | 24.1 | 0.00 | 0.00 | 0.00 | 32 | 1009.4 |
| 20260504210820 | 22 | 321 | 6.4 | 17.7 | 0.00 | 0.00 | 0.00 | 32 | 1009.5 |
| 20260504210059 | 22 | 282 | 4.8 | 17.7 | 0.00 | 0.00 | 0.00 | 31 | 1009.4 |
| 20260504205528 | 22 | 196 | 4.8 | 11.3 | 0.00 | 0.00 | 0.00 | 31 | 1009.4 |
| 20260504205031 | 22 | 289 | 4.8 | 22.5 | 0.00 | 0.00 | 0.00 | 31 | 1009.4 |
| 20260504204547 | 22 | 283 | 6.4 | 22.5 | 0.00 | 0.00 | 0.00 | 31 | 1009.4 |
| 20260504204028 | 22 | 288 | 4.8 | 20.9 | 0.00 | 0.00 | 0.00 | 31 | 1009.3 |
| 20260504203527 | 22 | 250 | 8.0 | 22.5 | 0.00 | 0.00 | 0.00 | 31 | 1009.3 |
| 20260504203044 | 22 | 260 | 6.4 | 22.5 | 0.00 | 0.00 | 0.00 | 31 | 1009.3 |
| 20260504202527 | 22 | 275 | 6.4 | 22.5 | 0.00 | 0.00 | 0.00 | 31 | 1009.4 |
| 20260504202026 | 22 | 205 | 8.0 | 22.5 | 0.00 | 0.00 | 0.00 | 31 | 1009.5 |
| 20260504201546 | 22 | 259 | 4.8 | 22.5 | 0.00 | 0.00 | 0.00 | 31 | 1009.4 |
| 20260504201024 | 22 | 244 | 4.8 | 22.5 | 0.00 | 0.00 | 0.00 | 31 | 1009.5 |
| 20260504200530 | 22 | 295 | 4.8 | 20.9 | 0.00 | 0.00 | 0.00 | 29 | 1009.4 |
| 20260504200049 | 22 | 240 | 6.4 | 20.9 | 0.00 | 0.00 | 0.00 | 29 | 1009.6 |
| 20260504195525 | 22 | 251 | 4.8 | 20.9 | 0.00 | 0.00 | 0.00 | 30 | 1009.6 |
| 20260504195025 | 22 | 288 | 4.8 | 24.1 | 0.00 | 0.00 | 0.00 | 31 | 1009.6 |
| 20260504194544 | 22 | 269 | 6.4 | 24.1 | 0.00 | 0.00 | 0.00 | 31 | 1009.7 |
| 20260504194025 | 22 | 272 | 9.7 | 24.1 | 0.00 | 0.00 | 0.00 | 30 | 1010.0 |
| 20260504193528 | 22 | 283 | 3.2 | 20.9 | 0.00 | 0.00 | 0.00 | 30 | 1009.9 |
| 20260504193045 | 22 | 286 | 6.4 | 20.9 | 0.00 | 0.00 | 0.00 | 30 | 1010.0 |
| 20260504192526 | 21 | 294 | 4.8 | 17.7 | 0.00 | 0.00 | 0.00 | 30 | 1010.0 |
| 20260504192030 | 22 | 275 | 3.2 | 24.1 | 0.00 | 0.00 | 0.00 | 30 | 1010.1 |
| 20260504191552 | 21 | 298 | 4.8 | 24.1 | 0.00 | 0.00 | 0.00 | 31 | 1010.2 |
| 20260504191027 | 21 | 285 | 8.0 | 20.9 | 0.00 | 0.00 | 0.00 | 29 | 1010.2 |
| 20260504190527 | 21 | 287 | 9.7 | 20.9 | 0.00 | 0.00 | 0.00 | 30 | 1010.3 |
| 20260504190041 | 21 | 257 | 6.4 | 17.7 | 0.00 | 0.00 | 0.00 | 31 | 1010.2 |
| 20260504185524 | 21 | 299 | 6.4 | 14.5 | 0.00 | 0.00 | 0.00 | 30 | 1010.4 |
| 20260504185025 | 21 | 271 | 4.8 | 19.3 | 0.00 | 0.00 | 0.00 | 31 | 1010.4 |
| 20260504184544 | 21 | 303 | 4.8 | 19.3 | 0.00 | 0.00 | 0.00 | 31 | 1010.5 |
| 20260504184029 | 21 | 259 | 3.2 | 19.3 | 0.00 | 0.00 | 0.00 | 30 | 1010.6 |
| 20260504183526 | 21 | 201 | 6.4 | 24.1 | 0.00 | 0.00 | 0.00 | 31 | 1010.7 |
| 20260504183045 | 21 | 281 | 8.0 | 24.1 | 0.00 | 0.00 | 0.00 | 31 | 1010.6 |
| 20260504182525 | 21 | 247 | 4.8 | 25.7 | 0.00 | 0.00 | 0.00 | 30 | 1010.8 |
| 20260504182025 | 21 | 290 | 6.4 | 25.7 | 0.00 | 0.00 | 0.00 | 30 | 1011.0 |
| 20260504181543 | 21 | 249 | 8.0 | 22.5 | 0.00 | 0.00 | 0.00 | 31 | 1010.9 |
| 20260504181027 | 21 | 254 | 6.4 | 22.5 | 0.00 | 0.00 | 0.00 | 30 | 1011.0 |
| 20260504180527 | 21 | 219 | 6.4 | 20.9 | 0.00 | 0.00 | 0.00 | 32 | 1011.0 |
| 20260504180043 | 21 | 243 | 8.0 | 19.3 | 0.00 | 0.00 | 0.00 | 30 | 1011.2 |
| 20260504175526 | 21 | 270 | 4.8 | 14.5 | 0.00 | 0.00 | 0.00 | 33 | 1011.3 |
| 20260504175026 | 21 | 248 | 4.8 | 24.1 | 0.00 | 0.00 | 0.00 | 31 | 1011.4 |
| 20260504174550 | 21 | 310 | 6.4 | 24.1 | 0.00 | 0.00 | 0.00 | 31 | 1011.4 |
| 20260504174027 | 21 | 284 | 4.8 | 14.5 | 0.00 | 0.00 | 0.00 | 31 | 1011.4 |
| 20260504173528 | 20 | 302 | 3.2 | 20.9 | 0.00 | 0.00 | 0.00 | 32 | 1011.5 |
| 20260504173045 | 20 | 270 | 3.2 | 20.9 | 0.00 | 0.00 | 0.00 | 32 | 1011.6 |
| 20260504172525 | 21 | 284 | 3.2 | 14.5 | 0.00 | 0.00 | 0.00 | 32 | 1011.6 |
| 20260504172025 | 20 | 204 | 6.4 | 17.7 | 0.00 | 0.00 | 0.00 | 31 | 1011.7 |
| 20260504171545 | 20 | 279 | 6.4 | 19.3 | 0.00 | 0.00 | 0.00 | 30 | 1011.8 |
| 20260504171027 | 20 | 221 | 4.8 | 25.7 | 0.00 | 0.00 | 0.00 | 32 | 1012.0 |
| 20260504170526 | 20 | 269 | 6.4 | 25.7 | 0.00 | 0.00 | 0.00 | 32 | 1012.0 |
| 20260504151027 | 18 | 221 | 6.4 | 17.7 | 0.00 | 0.00 | 0.00 | 41 | 1013.2 |
| 20260504150526 | 18 | 282 | 4.8 | 14.5 | 0.00 | 0.00 | 0.00 | 42 | 1013.2 |
| 20260504141028 | 17 | 223 | 4.8 | 17.7 | 0.00 | 0.00 | 0.00 | 52 | 1013.3 |
| 20260504140525 | 16 | 257 | 4.8 | 19.3 | 0.00 | 0.00 | 0.00 | 51 | 1013.5 |
| 20260504130525 | 15 | 286 | 8.0 | 25.7 | 0.00 | 0.00 | 0.00 | 56 | 1013.8 |